Content
SEND FEEDBACK

Daily
Averages
Monthly
Summary
Mexico

CANCUN, QUINTANA ROO


Home > North America > Mexico > Quintana Roo
Elevation: 9 meters     Latitude: 21 09N     Longitude: 086 49W

WEATHER
 
SELECT A DAY
Number of Records: 163,905;   Date Range: 1/1/95 - 8/10/14
 
SHARE

PRINT THIS DATA

[ ← Previous Day ]
WEATHER ALMANAC - 4 MARCH, 2014
[ Next Day → ]
[ °F ]   °C
Weather ElementAverageHighLow
Temperature25.3 °C29 °C (11:47 am)21 °C (5:46 am)
Dewpoint18.3 °C21 °C (9:44 pm)13 °C (1:43 pm)
Humidity65.9 %78 % (5:46 am)39 % (1:43 pm)
Barometer1014.6 hPa1016.6 hPa (9:44 am)1012.9 hPa (2:42 pm)
Wind Speed13.5 km/h24.1 km/h (1:43 pm)
Weather ElementAverage
Visibility11.3 km
Wind DirectionESE (103.5 °)

Weather ElementTotal
Precipitation---
Cooling Degree Days6.7 (Base 18.3)
Growing Degree Days15 (Base 10)
Averaged from 23 records on 4 March, 2014
WEATHER CONDITIONS BREAKOUT
WIND DIRECTION BREAKOUT
WEATHER BY HOUR - 4 MARCH, 2014
[ °F ]   °C
Local TimeTemperatureDewpointHumidityBarometerVisibilityWind DirectionWind SpeedGust SpeedPrecipitationEventsConditions
1:44 AM23 °C18 °C73 %1014.9 hPa11.3 kmENE (70°)9.3 km/hScattered Clouds
2:48 AM23 °C17 °C69 %1013.2 hPa11.3 kmENE (70°)11.1 km/hScattered Clouds
3:47 AM23 °C17 °C69 %1014.2 hPa11.3 kmEast (90°)9.3 km/hPartly Cloudy
4:46 AM22 °C17 °C73 %1014.2 hPa11.3 kmNE (50°)9.3 km/hPartly Cloudy
5:46 AM21 °C17 °C78 %1014.2 hPa11.3 kmEast (80°)9.3 km/hPartly Cloudy
6:45 AM23 °C18 °C73 %1015.2 hPa11.3 kmENE (70°)9.3 km/hPartly Cloudy
7:45 AM26 °C18 °C61 %1015.9 hPa11.3 kmEast (100°)13 km/hScattered Clouds
8:50 AM27 °C18 °C58 %1015.2 hPa11.3 kmEast (80°)11.1 km/hScattered Clouds
9:44 AM26 °C19 °C65 %1016.6 hPa11.3 kmENE (70°)16.7 km/hScattered Clouds
10:44 AM28 °C14 °C42 %1016.3 hPa11.3 kmSE (130°)20.4 km/hScattered Clouds
11:47 AM29 °C19 °C55 %1014.9 hPa11.3 kmENE (60°)7.4 km/hScattered Clouds
12:45 PM28 °C18 °C54 %1014.6 hPa11.3 kmSE (140°)18.5 km/hScattered Clouds
1:43 PM28 °C13 °C39 %1013.9 hPa11.3 kmSE (140°)24.1 km/hScattered Clouds
2:42 PM27 °C19 °C61 %1012.9 hPa11.3 kmSE (130°)18.5 km/hScattered Clouds
3:43 PM27 °C19 °C61 %1013.5 hPa11.3 kmSE (130°)14.8 km/hScattered Clouds
4:44 PM27 °C19 °C61 %1013.5 hPa11.3 kmESE (120°)16.7 km/hPartly Cloudy
5:43 PM25 °C19 °C69 %1013.2 hPa11.3 kmESE (110°)9.3 km/hClear
6:42 PM25 °C19 °C69 %1013.5 hPa11.3 kmEast (100°)11.1 km/hClear
7:40 PM24 °C20 °C78 %1014.2 hPa11.3 kmSE (130°)9.3 km/hClear
8:42 PM25 °C20 °C74 %1013.9 hPa11.3 kmESE (120°)13 km/hClear
9:44 PM25 °C21 °C78 %1014.9 hPa11.3 kmESE (120°)20.4 km/hScattered Clouds
10:43 PM25 °C21 °C78 %1014.6 hPa11.3 kmSE (130°)14.8 km/hScattered Clouds
11:46 PM25 °C21 °C78 %1013.5 hPa11.3 kmSE (140°)14.8 km/hScattered Clouds
Hourly data recorded from MMUN, located 0 kilometers away from Cancun, Quintana Roo







STORIES FROM OUR PARTNERS